Volver al catálogo

FENGYUN 1C DEB

ActivoSSO
NORAD 31688·DEBRIS·🇨🇳 China

Lanzado May 10, 1999 desde Taiyuan Satellite Launch Center

Loading…

Próximos Pases (próximas 24 horas)

TLE

ActualizadoSource: Space-Track

Época: Sep 14, 2026, 14:06 UTC

1 31688U 99025CCW 26257.58796681  .00000412  00000-0  28865-3 0  9992
2 31688  98.9263 311.5948 0075344  95.6559 265.3205 14.02412421991449

Sigue FENGYUN 1C DEB en tiempo real con AllMySat

Download on the App Store